www.pogodaiklimat.ru

Погода и климат >> Архив погоды >> Ирак >> Tuz


ПОГОДА в Tuz

  • Прогноз погоды в Tuz
  • Монитор погоды в Tuz
  • Климат города

АРХИВ ПОГОДЫ в Tuz

Время (UTC), дата Ветер
(напр.,м/с)
 
Видим.   Явления Облачность Т
(С)
Тd
(С)
f
(%)
Тe
(С)
Тes
(С)
Комфортность P
(гПа)
Po
(гПа)
Тmin
(С)
Tmax
(С)
R
(мм)
R24
(мм)
S
(см)
09 13.06 Ю 3 10 км ясно +39.5 +15.4 24 +41 +58 опасность
перегрева
998.9 999.0
12 13.06 Ю 3 10 км ясно +39.5 +15.4 24 +41 +51 опасность
перегрева
998.9 999.0
15 13.06 ЮЗ 2 10 км ясно +37.8 +14.3 25 +39 +40 очень
душно
998.0 998.0
18 13.06 штиль 0 10 км ясно +33.3 +13.8 31 +34 +34 очень
жарко
999.3 999.0 +39.6
06 14.06 СЗ 2 500 м пыль {туман} ясно +34.0 +14.3 31 +35 +48 очень
жарко
999.3 999.0 +28.2
09 14.06 СЗ 3 8000 м пыль {туман} 4/4 900 м
[Cu hum]
+40.4 +35 +46 очень
жарко
998.9 999.0
12 14.06 Ю 4 10 км 4/4 900 м
[Cu hum]
+41.6 +10.8 16 +40 +46 очень
жарко
996.7 997.0
15 14.06 Ю 3 10 км 1/1 600 м
[Cu Sc Ac trans]
+40.0 +10.9 18 +39 +40 очень
жарко
996.8 997.0
18 14.06 СЗ 3 10 км 3/0
[Ac trans]
+34.0 +12.5 27 +34 +34 очень
жарко
998.3 998.0 +42.0
06 15.06 Ю 2 10 км ясно +33.9 +27.0 67 +52 +64 опасность
перегрева
1006.5 1007.0
09 15.06 Ю 2 10 км ясно +37.3
12 15.06 СЗ 3 10 км 1/1 900 м
[Cu hum]
+37.8 +15.0 26 +39 +49 очень
душно
1002.1 1002.0
15 15.06 СЗ 3 10 км 1/1 900 м
[Cu hum]
+36.8 +15.5 28 +38 +39 очень
душно
1001.2 1001.0
06 17.06 штиль 0 10 км ясно +33.5 +15.9 35 +36 +53 опасность
солнечного
удара
1005.5 1006.0 +24.0
09 17.06 С 3 10 км ясно +39.5 +14.0 22 +40 +58 опасность
солнечного
удара
1004.0 1004.0
12 17.06 С 5 10 км ясно +40.5 +13.4 20 +40 +47 очень
жарко
1003.0 1003.0
15 17.06 С 4 10 км ясно +39.5 +11.4 19 +39 +39 очень
жарко
1001.9 1002.0
18 17.06 штиль 0 10 км ясно +35.2 +12.5 25 +35 +35 очень
жарко
1003.3 1003.0 +40.8
06 18.06 С 2 8000 м пыль ясно +32.5 +14.7 34 +34 +47 очень
жарко
1003.6 1004.0 +25.5
09 18.06 Ю 2 8000 м пыль ясно +38.2 +14.2 24 +39 +60 опасность
солнечного
удара
1002.1 1002.0
12 18.06 Ю 2 10 км ясно +39.4 +13.5 22 +40 +53 опасность
солнечного
удара
1000.9 1001.0
15 18.06 Ю 2 10 км ясно +37.0 +13.7 25 +37 +39 очень
жарко
1001.1 1001.0
18 18.06 штиль 0 10 км ясно +31.2 +14.1 35 +33 +33 жарко 1002.5 1003.0 +39.6
06 19.06 СЗ 3 10 км ясно +33.4 +16.6 37 +36 +47 очень
душно
1005.5 1006.0 +27.1
09 19.06 С 6 10 км ясно +36.8 +15.5 28 +38 +47 очень
душно
1005.3 1005.0
12 19.06 Ю 5 10 км ясно +38.3 +13.2 22 +38 +45 очень
жарко
1005.2 1005.0
15 19.06 СЗ 3 10 км ясно +37.5 +15.7 28 +39 +40 очень
душно
1004.1 1004.0
18 19.06 С 2 10 км ясно +33.8 +13.9 30 +35 +35 очень
жарко
1005.5 1006.0 +38.9
06 20.06 ЮВ 2 10 км ясно +34.6 +10.5 23 +34 +46 очень
жарко
1007.6 1008.0 +27.5

 

Местоположение метеостанции Tuz (Ирак): широта 34.88 долгота 44.65 высота над уровнем моря 220 м.

В архиве по умолчанию представлена погода в Tuz за последнюю неделю. Архивные данные за месяц целиком и за предыдущие месяцы, начиная с января 2011 года, Вы можете получить, выбрав интересующий диапазон дат из раскрывающегося списка и нажав кнопку "Ввод!".


*Определитесь, кто Вы:
робот инопланетянин человек

Внимание! Время в таблицах - всемирное. Для получения местного времени необходимо прибавить поправку, которая в Tuz равна 3 ч.

Смотрите также архив погоды в соседних городах и на ближайших метеорологических станциях:

Погода в Kirkuk (Ирак) (69 км)
Погода в Chamchamal (Ирак) (73 км)
Погода в Tikrit (Ирак) (93 км)
Погода в Khanaqin (Ирак) (96 км)
Погода в Sulaimaniya (Ирак) (104 км)
Погода в Baiji (Ирак) (107 км)
Погода в Al-Khalis (Ирак) (117 км)
Погода в Halabcha (Ирак) (124 км)
Погода в Makhmoor (Ирак) (136 км)
Погода в Ayn Al-Tamar (Ирак) (148 км)

Пояснения к столбцам:

Ветер - указаны скорость ветра в м/с - средняя за 10 мин, порывы в срок и между сроками (в фигурных скобках) и направление, откуда дует ветер: С - северный, СВ - северо-восточный, В - восточный, ЮВ - юго-восточный, Ю - южный, ЮЗ - юго-западный, З - западный, СЗ - северо-западный.
Видимость - горизонтальная дальность видимости в метрах или километрах. При видимости от 1 до 10 км при отсутствии осадков обычно наблюдается дымка, при ухудшении видимости до 1 км и менее - туман. В сухую погоду видимость может ухудшаться дымом, пылью или мглою.
Явления - указаны атмосферные явления, наблюдавшиеся в срок или в последний час перед сроком; фигурными скобками обозначены явления, наблюдавшиеся между сроками (за 1-3 часа до срока); квадратными скобками обозначены град или гололедные отложения с указанием их диаметра в мм.
Облачность - указаны через наклонную черту общая и нижняя облачность в баллах и высота нижней границы облаков в метрах; квадратными скобками обозначены формы облаков: Ci - перистые, Cs - перисто-слоистые, Cc - перисто-кучевые, Ac - высококучевые, As - высокослоистые, Sc - слоисто-кучевые, Ns - слоисто-дождевые, Cu - кучевые, Cb - кучево-дождевые. Подробнее классификацию облаков см. в Атласе облаков (PDF).
T - Температура воздуха - температура, измеренная на высоте 2 м над землей.
Td - Температура точки росы - температура, при понижении до которой содержащийся в воздухе водяной пар достигнет насыщения.
f - Относительная влажность воздуха - влажноcть воздуха, измеренная на высоте 2 м над землей.
Te - Эффективная температура - температура, которую ощущает одетый по сезону человек в тени. Характеристика душности погоды. При расчете учитывается влияние влажности воздуха и скорости ветра на теплоощущения человека.
Tes - Эффективная температура на солнце - температура, которую ощущает человек, с поправкой на солнечный нагрев. Характеристика знойности погоды. Зависит от высоты солнца над горизонтом, облачности и скорости ветра. Ночью, в пасмурную погоду, а также при ветре 12 м/с и более поправка равна нулю.
P - Атмосферное давление - приведенное к уровню моря атмосферное давление.
Po - Атмосферное давление - измеренное на уровне метеостанции атмосферное давление.
Tmin - Минимальная температура - минимум температуры воздуха на высоте 2 м над землей.
Tmax - Максимальная температура - максимум температуры воздуха на высоте 2 м над землей.
R - Количество осадков - Количество выпавших осадков за период времени, мм. При наведении курсора мыши на число - период времени, за который выпало указанное количество осадков.
R24 - Количество осадков - Количество выпавших осадков за 24 часа, мм.
S - Снежный покров - Высота снежного покрова, см. При наведении курсора мыши на число - состояние снежного покрова и степень покрытия местности в баллах.